Location: Newark
(5.8900°S, 42.6378°W)
Time: 09:40:44
(UTC+00:00)

Vanguard 2 Rocket - Visible Passes

Search period start: 18 September 2019 00:00
Search period end: 28 September 2019 00:00
Orbit: 554 x 3327 km, 32.9° (Epoch: 17 September)

Date Brightness Start Highest point End Pass type
(mag) Time Alt. Az. Time Alt. Az. Time Alt. Az.
18 Sep 8.4 06:06:08 63° N 06:07:47 69° NE 06:24:19 10° ESE visible
18 Sep 9.5 08:12:27 10° W 08:25:05 52° SSW 08:44:05 10° SE visible
19 Sep 9.3 05:10:24 39° ENE 05:10:24 39° ENE 05:20:49 10° ESE visible
19 Sep 8.9 07:16:15 31° W 07:23:07 65° SSW 07:41:27 10° SE visible
20 Sep 10.3 04:14:37 14° E 04:14:37 14° E 04:16:47 10° E visible
20 Sep 8.2 06:20:27 73° WNW 06:21:53 84° SW 06:38:39 10° SE visible
21 Sep 8.9 05:24:37 52° E 05:24:37 52° E 05:35:43 10° ESE visible
21 Sep 9.1 07:30:26 24° W 07:38:01 47° SSW 07:55:20 10° SE visible
22 Sep 10.0 04:28:42 20° ESE 04:28:42 20° ESE 04:32:35 10° ESE visible
22 Sep 8.4 06:34:32 54° WSW 06:36:25 59° SSW 06:52:38 10° SE visible
23 Sep 8.7 05:38:34 56° SE 05:38:34 56° SE 05:50:00 10° SE visible
23 Sep 9.5 07:44:23 15° WSW 07:53:20 35° SSW 08:09:18 10° SE visible
24 Sep 9.8 04:42:33 25° ESE 04:42:33 25° ESE 04:47:25 10° ESE visible
24 Sep 8.8 06:48:22 36° SW 06:51:25 42° SSW 07:06:27 10° SE visible
25 Sep 8.8 05:52:18 47° S 05:52:18 47° S 06:03:55 10° SE visible
25 Sep 9.8 07:58:49 10° WSW 08:09:03 28° S 08:23:37 10° SE visible
26 Sep 9.6 04:56:11 27° SE 04:56:11 27° SE 05:01:40 10° SE visible
26 Sep 9.3 07:01:59 23° SW 07:06:48 31° SSW 07:20:21 10° SE visible
27 Sep 9.0 06:05:50 35° SSW 06:05:50 35° SSW 06:17:39 10° SE visible
27 Sep 10.0 08:15:02 10° SW 08:25:04 24° S 08:38:39 10° SE visible
